Lid_Strength_Index
5 6 7 7 7 7 7 8 8 7 6 7 7 7 5 4 4 5 4 4 4 3 2 2 1 1 0 -0 -0 -0 -0 -1 -0 0 1 0 1 0 0 -0 -1 -1 -1 -1
6 8 6 6 6 7 7 8 8 7 6 6 7 7 6 5 5 4 4 4 4 3 3 2 1 1 1 0 -0 -0 -0 -1 -1 -0 -0 0 0 -0 -0 -0 -1 -1 -1 -1
8 7 6 7 7 8 7 8 8 8 7 6 7 8 7 6 5 4 4 3 3 3 3 3 2 1 1 1 0 0 -0 -1 -1 -1 -0 -0 -0 0 1 0 0 -0 -1 -0
7 6 7 7 8 8 9 7 8 8 9 11 7 12 8 7 6 5 4 4 4 3 3 2 2 1 1 1 -0 -0 -1 -1 -1 -1 -1 -0 1 2 1 0 -0 -0 -1 -0
8 8 8 8 8 7 8 7 7 8 9 9 9 11 9 7 7 6 5 4 4 3 3 3 2 1 1 0 0 -0 -0 -1 -1 -1 -1 0 0 1 0 0 0 -0 -1 -1
7 6 7 7 7 7 7 7 7 7 9 12 10 10 10 8 7 6 5 4 4 3 3 2 2 1 1 0 0 -0 -0 -0 -0 -0 -0 -0 0 1 1 1 1 1 0 -0
8 8 6 6 8 7 7 9 14 13 13 14 9 11 9 6 6 5 5 4 4 3 3 2 2 2 1 1 1 0 0 0 0 0 -0 -0 -0 0 1 1 1 1 1 1
11 12 8 7 7 8 8 9 13 18 15 13 9 12 9 6 5 4 4 4 4 3 2 2 2 2 2 1 1 1 0 1 1 1 0 -0 -0 0 0 0 0 1 1 0
11 11 7 7 5 6 9 11 8 13 11 14 11 9 7 6 5 5 4 4 4 3 3 3 2 2 2 1 1 1 0 0 1 1 1 -0 -0 -0 0 -0 -0 0 -0 0
9 13 9 8 6 6 7 6 12 12 19 17 12 11 11 8 7 6 5 5 4 3 3 3 2 2 1 1 0 0 0 0 1 1 1 1 -0 -0 -0 -0 0 0 -0 -0
8 10 9 7 8 9 8 10 9 10 12 17 16 12 6 7 6 6 5 5 5 4 3 3 2 2 1 1 1 1 1 1 1 1 1 0 0 -0 -0 0 0 0 -0 0
7 8 12 10 6 6 7 8 8 15 14 12 14 15 6 5 6 6 5 5 5 3 3 3 2 2 1 2 2 1 1 1 1 1 1 1 0 -0 0 0 0 -0 0 0
6 10 15 11 8 7 9 8 8 8 10 14 17 14 6 6 7 6 5 5 4 3 3 3 2 2 2 2 2 2 1 1 1 1 1 1 0 0 0 0 0 0 0 1
6 9 11 14 11 9 10 9 8 10 15 14 13 11 8 7 7 6 5 5 5 4 3 3 3 2 2 2 2 2 2 2 2 2 2 1 1 0 0 0 0 0 0 0
7 11 9 9 8 8 9 9 9 10 9 14 11 11 9 7 7 6 6 5 5 4 4 3 3 3 3 2 2 3 3 3 4 4 4 3 1 0 0 0 0 0 0 0
6 11 9 11 8 8 10 9 8 8 9 9 9 10 6 5 5 6 6 5 5 4 4 4 4 3 3 3 4 5 5 5 5 6 6 4 3 1 1 0 1 0 0 0
8 9 11 14 9 9 13 10 9 8 8 9 14 8 6 7 7 7 6 5 5 4 4 4 4 4 4 5 5 6 6 6 6 7 6 5 3 2 1 0 1 1 1 0
9 10 11 13 10 16 9 6 7 9 8 7 7 7 7 7 6 5 5 5 5 4 4 5 5 5 5 5 6 7 7 7 7 7 6 5 3 2 1 1 2 1 1 1
6 9 12 13 13 10 9 9 12 13 12 7 8 8 7 7 6 6 4 4 4 4 5 5 5 6 6 7 7 8 8 8 8 7 6 5 2 1 1 1 2 1 1 2
7 7 11 12 16 17 9 7 5 6 14 7 7 8 8 7 12 9 4 4 5 6 7 7 6 6 7 8 8 9 9 9 9 7 5 4 2 1 1 2 2 2 2 3
9 9 12 12 13 11 7 6 5 15 14 7 7 7 8 9 7 5 5 7 7 7 8 8 8 9 9 8 9 10 9 10 8 5 4 3 1 1 1 2 2 3 5 5
11 13 13 12 14 15 5 7 13 9 7 7 7 7 7 6 7 8 8 8 9 9 9 9 10 10 9 9 9 10 10 8 6 5 3 2 1 1 1 3 4 5 6 7
12 9 12 11 11 6 5 7 5 5 6 6 7 5 6 7 9 8 10 10 9 9 9 9 10 10 10 9 10 10 9 7 5 4 3 2 1 1 1 4 5 6 6 7
7 6 10 10 7 7 5 4 4 4 5 4 4 6 8 9 10 10 10 11 11 10 10 10 10 10 10 9 9 9 8 7 6 5 3 2 1 2 2 4 5 6 7 7
7 7 9 9 7 7 6 5 4 4 4 5 5 7 9 10 11 11 11 11 11 11 10 10 10 10 10 9 8 8 7 7 6 4 2 2 2 3 5 7 6 6 6 6
6 9 11 12 8 8 7 4 3 5 6 6 7 9 9 10 11 11 12 11 11 11 10 10 10 9 9 8 8 7 6 5 5 4 2 2 4 6 6 8 9 11 11 11